This is the latest recevied weather packets stored in our database for station/object K5NWZ. If no packets are shown the sender has not sent any weather packets the latest 10 day(s).
| Time | Temp. | Humidity | Pressure | Rain* | Wind** | Luminosity | Snow |
|---|---|---|---|---|---|---|---|
| 1787993646 | 22.22° C | 48% | 1027.6 hPa | 0 mm | - | 0 W/m² | - |
| 1787993342 | 22.22° C | 49% | 1027.7 hPa | 0 mm | - | 0 W/m² | - |
| 1787993037 | 21.67° C | 51% | 1027.6 hPa | 0 mm | - | 0 W/m² | - |
| 1787992732 | 21.67° C | 55% | 1027.9 hPa | 0 mm | - | 0 W/m² | - |
| 1787992431 | 21.67° C | 54% | 1028 hPa | 0 mm | - | 0 W/m² | - |
| 1787992126 | 21.67° C | 53% | 1027.7 hPa | 0 mm | - | 0 W/m² | - |
| 1787991825 | 21.67° C | 53% | 1028.1 hPa | 0 mm | - | 0 W/m² | - |
| 1787991520 | 21.11° C | 53% | 1028 hPa | 0 mm | - | 0 W/m² | - |
| 1787991216 | 21.67° C | 53% | 1028 hPa | 0 mm | - | 0 W/m² | - |
| 1787990911 | 21.11° C | 52% | 1028.2 hPa | 0 mm | - | 0 W/m² | - |
| 1787990606 | 21.11° C | 53% | 1027.9 hPa | 0 mm | - | 0 W/m² | - |
| 1787990304 | 21.11° C | 52% | 1027.7 hPa | 0 mm | - | 0 W/m² | - |
| 1787990000 | 21.11° C | 53% | 1027.9 hPa | 0 mm | - | 0 W/m² | - |
| 1787989698 | 21.67° C | 53% | 1028 hPa | 0 mm | - | 0 W/m² | - |
| 1787989394 | 21.67° C | 51% | 1028 hPa | 0 mm | - | 0 W/m² | - |
| 1787989087 | 21.67° C | 51% | 1028 hPa | 0 mm | - | 0 W/m² | - |
| 1787988786 | 21.67° C | 51% | 1028.2 hPa | 0 mm | - | 0 W/m² | - |
| 1787988483 | 21.67° C | 51% | 1028 hPa | 0 mm | - | 0 W/m² | - |
| 1787988181 | 21.67° C | 51% | 1028.2 hPa | 0 mm | - | 0 W/m² | - |
| 1787987878 | 21.67° C | 52% | 1028.2 hPa | 0 mm | - | 0 W/m² | - |
| 1787987572 | 21.67° C | 53% | 1028.1 hPa | 0 mm | - | 0 W/m² | - |
| 1787987262 | 21.67° C | 52% | 1028.2 hPa | 0 mm | - | 0 W/m² | - |
| 1787986958 | 21.67° C | 51% | 1028.2 hPa | 0 mm | - | 0 W/m² | - |
| 1787986651 | 21.67° C | 51% | 1028.2 hPa | 0 mm | - | 0 W/m² | - |
| 1787986351 | 21.67° C | 51% | 1028.1 hPa | 0 mm | - | 0 W/m² | - |
* Rain latest hour (hover to see other rain measurements)
** Current wind speed in m/s (hover to see current wind gust speed)